TimeEDT,TemperatureF,Dew PointF,Humidity,Sea Level PressureIn,VisibilityMPH,Wind Direction,Wind SpeedMPH,Gust SpeedMPH,PrecipitationIn,Events,Conditions,WindDirDegrees,DateUTC
12:22 AM,28.4,17.6,64,30.20,10.0,WNW,9.2,17.3,N/A,,Overcast,300,2013-03-14 04:22:00
12:53 AM,28.0,18.0,66,30.23,10.0,West,9.2,17.3,N/A,,Mostly Cloudy,280,2013-03-14 04:53:00
1:53 AM,27.0,17.1,66,30.23,10.0,WNW,8.1,-,N/A,,Partly Cloudy,290,2013-03-14 05:53:00
2:53 AM,26.1,16.0,66,30.24,10.0,West,5.8,-,N/A,,Clear,280,2013-03-14 06:53:00
3:53 AM,25.0,16.0,69,30.24,10.0,WNW,5.8,-,N/A,,Clear,290,2013-03-14 07:53:00
4:53 AM,25.0,15.1,66,30.24,10.0,WNW,5.8,-,N/A,,Clear,290,2013-03-14 08:53:00
5:53 AM,24.1,15.1,69,30.25,10.0,West,4.6,-,N/A,,Clear,280,2013-03-14 09:53:00
6:53 AM,24.1,15.1,69,30.26,10.0,West,5.8,-,N/A,,Clear,270,2013-03-14 10:53:00
7:53 AM,24.1,15.1,69,30.28,10.0,WNW,3.5,-,N/A,,Clear,290,2013-03-14 11:53:00
8:53 AM,26.1,16.0,66,30.29,10.0,WSW,4.6,-,N/A,,Clear,250,2013-03-14 12:53:00
9:53 AM,28.9,17.1,61,30.29,10.0,WNW,5.8,-,N/A,,Clear,290,2013-03-14 13:53:00
10:53 AM,30.9,18.0,59,30.29,10.0,West,6.9,-,N/A,,Partly Cloudy,270,2013-03-14 14:53:00
11:53 AM,34.0,19.0,54,30.28,10.0,West,8.1,-,N/A,,Mostly Cloudy,270,2013-03-14 15:53:00
12:53 PM,35.1,18.0,50,30.27,10.0,West,10.4,18.4,N/A,,Mostly Cloudy,280,2013-03-14 16:53:00
1:53 PM,36.0,18.0,48,30.25,10.0,West,11.5,18.4,N/A,,Partly Cloudy,280,2013-03-14 17:53:00
2:53 PM,37.9,17.1,43,30.22,10.0,WNW,12.7,20.7,N/A,,Mostly Cloudy,290,2013-03-14 18:53:00
3:53 PM,39.0,19.0,45,30.19,10.0,NW,12.7,18.4,N/A,,Mostly Cloudy,320,2013-03-14 19:53:00
4:53 PM,39.9,19.0,43,30.19,10.0,WNW,9.2,-,N/A,,Scattered Clouds,300,2013-03-14 20:53:00
5:53 PM,39.0,19.0,45,30.19,10.0,NW,9.2,20.7,N/A,,Mostly Cloudy,320,2013-03-14 21:53:00
6:53 PM,37.9,19.9,48,30.19,10.0,NW,8.1,-,N/A,,Partly Cloudy,310,2013-03-14 22:53:00
7:53 PM,36.0,19.9,52,30.19,10.0,WNW,4.6,-,N/A,,Scattered Clouds,290,2013-03-14 23:53:00
8:53 PM,33.1,21.0,61,30.19,10.0,Calm,Calm,-,N/A,,Partly Cloudy,0,2013-03-15 00:53:00
9:53 PM,30.0,21.0,69,30.20,10.0,Calm,Calm,-,N/A,,Clear,0,2013-03-15 01:53:00
10:53 PM,28.0,21.0,75,30.19,10.0,Calm,Calm,-,N/A,,Clear,0,2013-03-15 02:53:00
11:53 PM,27.0,19.9,75,30.18,10.0,Calm,Calm,-,N/A,,Clear,0,2013-03-15 03:53:00